SCP
0 0 0 0 0 0 0 0 0 0 0 0 0 0 0 0 0 0 0 0 0 0 0 0 0 0 0 0 0 0 0 0 0 0 0 0 0 0 0 0 0 0 0 0 -0 0 0 0 0 0 0 0 -0 -0
0 0 0 0 0 0 0 0 0 0 0 0 0 0 0 0 0 0 0 0 0 0 0 0 0 0 0 -0 0 0 0 0 0 0 0 0 0 0 0 0 0 0 0 0 0 0 0 0 0 0 0 -0 -0 -0
0 0 0 0 0 0 0 0 0 0 0 0 0 0 0 0 0 0 0 0 0 0 0 0 0 0 0 0 0 0 0 0 0 0 0 0 0 0 0 0 0 0 0 0 0 0 0 0 0 0 0 -0 -0 -0
0 0 0 0 0 0 0 0 0 0 0 0 0 0 0 0 0 0 0 0 0 0 0 0 0 0 0 0 0 0 0 0 0 0 0 0 0 0 0 0 0 0 0 0 0 0 0 0 0 0 0 -0 -0 -0
0 0 0 0 0 0 0 0 0 0 0 0 0 0 0 0 0 0 0 0 0 0 0 0 0 0 0 0 0 0 0 0 0 0 0 0 0 0 0 0 -0 0 0 0 0 0 0 0 0 0 -0 0 0 0
0 0 0 0 0 0 0 0 0 0 0 0 0 0 0 0 0 0 0 0 0 0 0 0 0 0 0 0 0 0 0 0 0 0 0 0 0 0 0 0 0 0 0 0 0 0 0 0 0 0 0 0 -0 0
0 0 0 0 0 0 0 0 0 0 0 0 0 0 0 0 0 0 0 0 0 0 0 0 0 0 0 0 0 0 0 0 0 0 0 0 0 0 0 0 0 0 0 0 0 0 0 0 0 0 0 0 0 0
0 0 0 0 0 0 0 0 0 0 0 0 0 0 0 0 0 0 0 0 0 0 0 0 0 0 0 0 0 0 0 0 0 0 0 0 0 0 0 -0 0 0 0 0 0 0 0 0 0 0 0 0 0 0
0 0 0 0 0 0 0 0 0 0 0 0 0 0 0 0 0 0 0 0 0 0 0 0 0 0 0 0 0 0 0 0 0 0 0 0 0 0 0 0 0 0 0 0 0 0 0 0 0 0 0 -0 0 0
-0 0 0 0 0 0 0 0 0 0 0 0 0 0 0 0 0 -0 0 0 0 0 0 0 0 0 0 0 0 0 0 0 0 0 0 0 0 0 0 0 0 0 0 0 0 0 0 0 0 0 0 0 0 0
0 0 0 0 0 0 0 0 0 -0 0 0 0 0 0 0 0 0 0 0 0 0 0 0 0 0 0 0 0 0 0 0 0 0 0 -0 0 0 0 0 0 0 0 0 0 0 0 0 0 0 0 0 0 0
0 0 0 -0 0 0 0 -0 0 0 0 0 0 0 0 0 0 0 0 0 0 0 0 0 0 0 0 0 0 0 0 0 0 -0 -0 -0 0 -0 -0 -0 0 0 0 0 0 0 0 0 0 -0 -0 -0 -0 -0
0 0 0 -0 0 0 0 0 0 -0 0 0 0 0 0 0 0 0 0 0 0 0 0 0 0 0 0 0 0 0 0 0 0 0 -0 0 -0 -0 -0 -0 0 0 0 0 0 -0 0 0 0 0 0 -0 -0 -0
-0 -0 0 -0 -0 0 0 0 -0 0 0 0 0 0 0 0 0 0 0 0 0 0 0 0 0 -0 0 0 0 0 0 0 0 0 0 0 0 -0 -0 -0 0 0 0 0 0 0 -0 -0 0 -0 -0 -0 -0 -0
-0 -0 -0 -0 -0 -0 0 0 0 0 0 0 0 0 0 0 0 0 0 -0 0 0 0 0 0 0 0 0 0 0 0 0 0 0 0 0 0 -0 -0 -0 -0 0 0 0 0 0 0 -0 -0 -0 -0 -0 -0 -0
-0 -0 -0 -0 -0 -0 0 -0 0 0 0 0 0 0 0 0 0 -0 -0 -0 0 0 0 0 0 0 0 0 0 0 0 0 0 0 0 0 0 -0 -0 -0 -0 -0 0 0 -0 0 0 0 -0 -0 -0 -0 -0 -0
-0 0 0 -0 0 0 0 0 0 0 0 0 0 -0 0 0 -0 -0 0 0 0 0 0 0 0 0 0 0 0 0 0 0 0 0 0 0 0 -0 -0 -0 -0 -0 -0 -0 0 -0 -0 0 0 -0 -0 -0 -0 -0
0 0 0 -0 0 0 0 0 0 0 0 -0 0 -0 -0 0 0 0 -0 0 -0 0 0 0 0 0 0 0 0 0 0 0 0 0 0 0 0 -0 -0 -0 -0 -0 -0 0 0 -0 -0 -0 -0 -0 -0 -0 -0 -0
0 0 0 -0 0 0 0 0 0 0 0 0 0 0 0 0 -0 -0 -0 -0 -0 0 0 0 0 0 0 0 0 0 0 0 0 0 0 0 0 -0 -0 -0 -0 -0 0 0 0 0 0 0 0 0 0 -0 -0 -0
0 0 0 0 0 0 0 0 0 0 0 0 0 0 0 0 -0 -0 -0 -0 -0 0 0 0 0 0 0 0 0 0 0 0 0 0 0 0 0 0 0 0 0 0 0 0 0 -0 0 0 0 0 0 0 0 0
0 0 0 0 0 0 0 0 0 0 0 0 0 0 0 0 0 -0 -0 -0 -0 0 0 0 0 0 0 0 0 0 0 0 0 0 0 0 -0 0 0 0 -0 0 0 0 0 0 0 0 0 0 0 0 0 0
0 0 0 0 0 0 0 0 0 0 0 0 0 -0 -0 -0 -0 -0 0 0 0 0 0 0 0 0 0 0 0 0 0 0 0 0 0 0 0 0 0 0 0 0 0 0 0 0 0 0 0 0 0 0 0 0
0 0 0 0 0 0 0 0 0 0 0 0 0 -0 -0 -0 -0 -0 -0 -0 0 0 0 0 0 0 0 0 -0 -0 0 0 0 0 0 0 0 0 0 0 0 0 0 0 0 0 0 0 0 0 0 0 0 0
0 0 0 0 0 0 0 0 0 0 0 0 -0 -0 -0 0 0 -0 -0 0 0 0 0 0 -0 0 0 -0 0 0 -0 0 0 0 0 0 0 0 0 0 0 0 0 0 0 0 0 0 0 0 0 0 0 0
0 0 0 0 0 0 0 -0 -0 -0 0 -0 -0 0 0 0 0 -0 0 0 0 0 0 0 0 0 0 0 0 0 0 0 -0 -0 0 0 0 0 0 0 0 0 0 0 0 0 0 0 0 0 0 0 0 0
0 0 0 0 0 0 0 0 -0 -0 -0 -0 -0 0 0 0 0 0 0 0 0 0 0 0 0 0 0 0 0 0 0 -0 -0 -0 0 0 0 0 0 0 0 0 0 0 0 0 0 0 0 0 0 0 0 0
0 0 0 0 0 0 0 0 -0 -0 -0 0 0 0 0 0 0 0 0 0 0 0 0 0 0 0 0 0 -0 -0 0 0 0 0 0 0 0 0 0 0 0 0 0 0 0 0 0 0 0 0 0 0 0 0
0 0 0 0 0 0 0 0 0 0 0 0 0 0 0 0 0 0 0 0 0 0 0 0 0 0 -0 -0 -0 0 0 0 0 0 0 0 0 0 0 0 0 0 0 0 0 0 0 0 0 0 0 0 0 0
0 0 0 -0 -0 -0 -0 -0 0 0 0 0 0 0 0 0 0 0 0 0 0 0 0 0 0 0 0 0 0 0 0 0 0 0 0 0 0 0 0 0 0 0 0 0 0 0 0 0 0 0 0 0 0 0
0 0 0 0 0 0 0 0 0 0 0 0 0 0 0 0 0 0 0 0 0 0 0 0 0 0 0 0 0 0 0 0 0 0 0 0 0 0 0 0 0 0 0 0 0 0 0 0 0 0 0 0 0 0
0 0 0 0 0 0 0 0 0 0 0 0 0 0 0 0 0 0 0 0 0 0 0 0 0 0 0 0 0 0 0 0 0 0 0 0 0 0 0 0 0 0 0 0 0 0 0 0 0 0 0 0 0 0
0 0 0 0 0 0 0 0 0 0 0 0 0 0 0 0 0 0 0 0 0 0 0 0 0 0 0 0 0 0 0 0 0 0 0 0 0 0 0 0 0 0 0 0 0 0 0 0 0 0 0 0 0 0
0 0 0 0 0 0 0 0 0 0 0 0 0 0 0 0 0 0 0 0 0 0 0 0 0 0 0 0 0 0 0 0 0 0 0 0 0 0 0 0 0 0 0 0 0 0 0 0 0 0 0 0 0 0
Wind_Speed_500mb
41 40 38 36 33 30 29 31 30 29 28 29 26 18 21 21 20 20 19 14 13 15 35 26 23 18 16 14 9 6 11 2 5 5 6 11 7 4 6 12 10 17 17 16 22 12 18 7 11 8 22 32 38 44
38 38 37 35 33 31 29 28 28 27 27 28 29 26 20 21 22 23 22 20 25 18 21 29 35 42 41 31 12 10 3 6 3 3 2 9 8 5 5 4 2 8 18 5 10 6 5 3 8 16 14 29 39 46
39 37 35 35 34 32 31 29 29 27 26 28 34 32 26 21 24 30 24 25 15 11 35 20 16 16 15 28 33 13 10 12 10 8 4 5 11 6 5 6 8 12 19 7 10 3 3 4 11 6 21 33 37 42
35 35 35 35 33 33 33 31 29 27 25 26 29 31 29 22 23 30 35 19 17 8 6 6 1 9 14 17 26 37 14 9 3 4 7 7 8 12 7 8 14 14 2 12 18 15 13 2 9 18 30 31 38 42
34 34 33 33 32 32 32 32 29 27 27 24 20 26 24 16 20 35 26 21 19 11 7 22 42 22 31 40 28 33 36 26 6 4 7 7 11 11 13 13 16 22 16 10 12 14 13 18 22 26 27 35 38 46
31 30 29 29 29 29 27 28 29 27 27 24 21 25 21 23 28 32 10 20 27 23 6 7 1 12 12 12 17 30 30 24 12 8 11 12 24 13 7 10 9 6 6 13 8 13 18 22 18 20 31 33 38 43
29 28 28 29 28 26 25 26 27 26 22 19 21 24 21 23 32 25 10 13 11 20 7 9 5 9 10 6 7 22 19 16 15 9 12 13 9 10 7 17 7 7 3 6 10 14 18 18 26 27 27 32 37 41
30 30 29 29 27 26 24 26 25 23 15 17 20 22 20 31 44 32 20 15 12 12 6 5 8 11 16 9 9 16 14 16 14 9 9 15 8 11 9 15 11 2 1 8 9 11 16 19 21 22 27 33 38 41
27 30 29 30 30 27 26 23 21 18 16 16 22 21 15 35 20 24 17 15 15 10 6 8 6 5 9 7 7 15 17 7 14 7 7 7 7 10 12 5 10 9 2 11 15 17 11 16 19 23 29 33 36 41
29 30 30 30 29 26 25 22 21 18 13 19 17 16 10 14 19 27 14 13 12 8 11 7 21 10 5 12 9 3 10 7 6 9 13 7 11 19 1 4 10 5 5 12 17 16 18 18 21 25 27 30 32 37
35 29 29 27 25 24 20 24 24 19 12 26 13 10 14 33 18 10 8 10 11 9 14 15 22 16 8 9 3 4 2 4 5 8 8 7 7 11 8 8 5 2 5 9 10 11 12 16 21 24 26 28 31 35
32 31 30 28 27 24 17 23 21 19 14 16 10 26 27 9 6 7 7 9 11 7 15 11 11 13 5 5 6 6 4 5 7 18 8 6 8 17 16 13 6 3 7 8 8 9 12 16 19 21 22 24 28 32
28 29 30 31 28 23 20 16 20 22 22 16 9 10 10 9 9 9 13 9 8 8 10 14 6 7 7 8 5 4 7 8 6 7 6 5 22 20 17 12 6 4 5 7 9 11 14 16 18 19 19 22 25 29
23 25 25 26 34 30 21 17 22 30 16 10 10 10 9 10 10 10 8 8 9 6 5 4 7 8 8 8 4 7 8 7 7 8 3 14 20 21 18 10 8 9 8 8 10 13 15 17 17 19 20 22 25 30
20 19 20 18 19 23 15 18 25 29 13 6 6 7 12 7 5 9 5 1 2 6 10 3 7 11 6 6 8 8 7 7 8 1 13 25 25 23 17 14 13 11 10 12 13 15 17 18 20 21 23 24 26 30
21 20 20 11 13 15 16 19 53 36 5 6 8 9 9 8 3 8 10 11 11 9 7 7 4 5 8 5 9 10 5 4 4 7 28 28 25 20 20 17 15 13 13 13 14 16 17 19 21 22 24 27 28 30
17 9 9 15 21 17 26 37 26 13 8 6 9 19 19 7 16 10 10 2 8 11 4 5 7 9 6 5 6 4 3 8 14 22 25 24 22 23 22 19 16 14 14 14 14 15 16 17 19 22 26 28 30 31
17 6 11 14 28 27 38 24 10 9 9 14 12 13 14 13 9 3 6 5 10 10 6 6 8 6 4 3 4 7 12 18 19 22 24 23 24 23 20 18 16 14 13 13 13 13 14 16 17 20 22 24 26 33
7 8 11 29 36 19 10 11 5 6 16 10 19 18 11 9 11 9 14 11 11 14 6 7 7 5 5 7 3 12 17 22 24 23 25 25 23 21 19 17 15 13 12 11 10 10 10 14 15 18 20 22 24 29
8 10 20 31 33 7 6 5 12 7 7 7 14 12 13 11 4 11 12 13 10 6 8 7 6 2 10 3 10 7 17 22 27 29 28 25 22 20 17 14 12 11 9 8 9 8 6 8 13 15 19 22 23 28
17 15 18 25 20 10 6 6 8 7 7 9 6 10 9 8 11 11 10 12 8 5 6 9 7 10 4 3 3 13 20 23 23 24 28 27 22 19 15 12 10 7 6 6 5 9 10 10 12 15 17 20 21 23
16 29 25 29 7 6 5 8 5 3 5 7 5 9 9 10 10 9 14 7 7 10 10 7 12 8 3 9 15 19 23 21 23 26 24 25 22 19 15 12 10 9 8 8 7 7 8 10 14 14 17 20 22 23
28 20 10 12 5 9 3 8 7 5 5 4 5 5 5 5 7 10 4 8 10 14 15 12 17 8 14 19 23 24 23 24 27 27 26 21 19 17 15 13 11 9 8 8 7 7 8 13 15 16 18 20 22 23
20 12 6 10 10 6 5 8 7 4 5 3 3 7 3 7 7 4 2 2 6 2 10 22 19 17 18 22 26 24 23 23 24 24 20 22 20 17 14 12 10 8 7 5 5 6 7 10 16 15 18 20 24 25
7 9 8 6 10 10 11 9 8 6 5 8 6 4 4 6 3 4 2 5 8 9 6 15 18 15 15 21 23 23 19 22 24 23 19 18 18 16 13 10 9 6 5 4 5 6 8 10 12 17 18 21 25 26
7 10 11 14 8 8 9 5 10 10 7 5 7 5 4 3 4 5 4 9 12 10 4 12 22 19 16 18 20 20 21 20 20 21 17 17 14 13 13 11 8 3 4 4 3 5 7 11 14 18 19 22 27 27
6 9 10 11 6 5 6 9 6 4 4 5 1 5 3 5 4 5 4 8 12 9 6 8 13 21 23 21 20 21 19 17 20 20 18 15 12 9 6 4 7 7 4 4 4 6 8 12 15 18 20 22 23 25
7 7 7 15 9 10 3 5 4 2 1 3 3 3 3 8 4 2 1 3 13 10 8 15 20 22 23 23 22 24 25 27 30 27 23 19 15 13 14 10 10 19 11 7 6 6 10 13 16 19 20 22 23 24
7 5 7 9 7 9 3 3 5 7 9 4 2 4 6 6 5 7 9 8 18 14 16 21 25 27 29 27 25 21 19 19 20 23 20 17 13 10 10 12 11 6 5 12 15 18 23 21 19 16 18 19 20 22
9 12 3 7 3 1 5 3 3 5 9 11 13 14 14 10 14 21 23 14 18 28 25 22 21 21 23 23 25 26 22 19 19 18 14 14 15 12 9 7 5 4 6 8 11 17 23 21 19 18 18 18 20 23
16 8 6 5 5 4 9 12 14 15 11 16 17 20 17 12 17 17 27 18 14 19 22 25 28 27 23 21 19 18 18 16 20 19 18 16 13 11 8 7 5 4 7 9 10 12 14 13 13 14 16 18 21 23
14 10 11 6 6 13 10 3 6 7 6 9 9 13 13 8 8 6 20 26 15 20 23 23 25 25 22 23 26 28 30 26 23 21 18 15 13 11 9 7 8 9 9 9 10 11 13 13 12 15 16 19 22 24
8 10 13 11 10 11 10 8 5 7 7 7 6 6 7 6 7 7 20 28 18 22 25 25 25 26 27 26 26 24 19 16 13 11 8 6 6 12 11 8 8 9 8 9 11 12 15 17 18 20 22 24 26 28
Wind_Direction_500mb
286 283 284 285 287 288 283 276 277 276 270 267 268 278 271 260 262 265 269 250 232 265 286 297 258 232 254 248 257 52 247 69 149 230 245 258 279 258 252 157 177 197 197 217 232 244 246 93 273 310 352 331 331 324
295 287 282 281 280 281 281 279 277 274 270 266 266 263 266 269 250 249 242 239 243 239 265 289 269 261 255 239 240 240 355 179 153 249 286 298 270 274 270 232 189 233 222 244 219 232 121 267 301 326 311 320 326 322
295 292 285 278 278 278 280 280 280 277 277 276 264 258 263 255 248 255 247 264 263 279 299 263 296 227 217 209 215 230 233 231 232 176 314 279 274 298 262 271 244 245 237 242 294 13 92 228 322 300 323 323 320 321
296 292 291 285 277 275 277 278 274 273 276 280 273 246 254 249 242 246 246 259 234 264 272 311 5 207 208 195 207 222 248 179 180 237 269 245 260 283 278 289 291 296 217 264 270 278 325 56 25 335 323 321 322 325
296 293 290 288 282 275 270 270 268 261 264 274 272 245 248 260 247 246 235 247 238 223 290 295 296 273 241 245 247 221 229 222 209 246 235 259 275 269 269 275 260 274 269 282 300 355 313 318 338 326 327 326 328 328
302 301 299 296 291 281 276 271 266 260 262 273 271 237 238 251 243 202 231 253 238 229 278 294 43 264 202 200 218 211 209 202 207 232 262 258 254 261 281 263 257 272 327 356 315 312 313 301 306 331 324 326 329 326
300 305 304 300 297 291 277 271 263 260 264 267 277 244 231 251 238 186 190 164 143 182 240 273 285 158 168 162 181 156 190 203 199 236 237 243 250 256 271 267 278 317 157 275 313 309 306 337 329 322 326 329 330 330
283 291 297 297 293 289 284 276 261 256 247 273 277 260 246 221 220 207 199 185 166 187 234 272 269 193 186 158 176 184 168 194 212 243 233 250 255 234 253 253 132 180 49 279 297 309 309 315 319 328 333 336 337 337
268 282 287 287 287 284 278 273 249 233 254 282 280 243 248 195 193 216 213 218 202 198 234 212 245 241 182 124 163 184 178 182 205 220 225 225 250 230 256 285 195 138 12 327 320 313 320 332 333 340 342 344 344 340
253 270 280 283 285 278 273 255 240 269 257 269 185 175 198 189 162 143 136 171 205 231 227 254 235 247 274 179 177 219 199 210 211 213 155 216 251 251 196 76 104 101 358 337 334 343 340 337 342 344 349 348 345 343
251 268 277 278 282 273 271 244 241 286 238 188 179 159 151 148 145 151 160 201 182 229 209 232 234 235 239 261 129 211 265 303 236 170 208 208 248 165 170 148 142 52 349 341 338 332 337 340 343 346 349 351 349 351
263 258 272 272 276 266 262 247 240 225 207 196 170 135 142 184 203 181 196 187 219 245 177 213 190 205 223 263 232 198 256 197 254 173 220 212 130 138 152 152 142 13 348 346 357 359 358 354 356 357 358 358 356 358
257 256 265 261 260 263 243 248 228 216 210 167 155 147 173 179 199 211 190 199 188 215 196 170 154 164 193 194 221 244 232 233 221 211 227 68 138 152 148 150 130 41 58 47 26 18 14 9 12 14 13 10 8 9
268 268 267 259 244 246 238 255 235 195 186 193 175 174 227 173 228 213 331 45 61 133 179 165 137 183 177 182 230 238 219 221 221 221 176 129 139 147 147 139 140 104 80 67 57 37 32 27 29 31 30 23 17 13
274 276 269 249 228 220 228 218 219 196 196 202 215 226 212 245 130 117 119 327 225 196 164 199 200 183 171 232 210 241 201 226 220 47 112 122 138 147 135 128 120 110 92 80 60 51 43 42 47 46 36 28 20 14
263 280 252 231 217 208 205 174 181 190 211 220 232 254 222 227 152 216 230 247 212 211 192 210 219 210 200 220 214 208 219 184 74 111 106 132 139 132 130 124 114 102 91 79 64 61 59 53 48 43 34 25 19 15
243 235 254 243 218 206 176 177 179 194 212 221 240 243 260 266 227 219 223 166 237 175 197 203 230 227 175 229 220 188 82 110 134 107 122 132 135 135 133 126 117 106 96 84 73 70 64 55 48 41 32 25 18 16
218 235 241 170 166 173 177 191 181 195 233 228 245 218 218 252 273 223 163 240 198 186 197 231 276 237 214 272 136 131 135 103 111 118 129 133 135 134 133 127 120 109 100 91 83 74 64 53 43 33 25 20 15 12
200 249 179 168 176 157 148 181 199 235 233 241 245 261 262 259 269 252 183 194 238 227 254 252 249 233 161 233 67 118 137 134 130 129 131 135 136 133 130 127 120 111 102 95 89 78 65 55 43 32 22 19 18 10
153 183 170 184 186 159 145 186 184 248 249 246 240 247 235 247 261 202 214 180 200 192 225 218 245 354 157 14 84 172 137 137 140 141 142 143 142 137 135 135 125 121 107 108 81 82 69 52 32 23 16 15 15 11
166 171 152 173 188 216 196 189 209 233 273 266 312 295 268 263 251 212 188 155 181 221 253 238 184 145 78 91 115 126 139 145 151 152 152 149 152 144 139 132 129 118 106 91 71 68 55 39 24 15 14 10 12 3
176 167 166 191 170 216 227 212 245 280 250 268 229 217 238 213 225 207 158 165 220 222 233 247 194 161 132 117 127 137 136 140 138 139 142 146 144 142 138 132 127 109 86 68 61 52 43 20 26 14 5 5 2 355
172 165 151 186 179 196 224 186 216 214 245 257 246 215 231 206 130 163 173 214 228 228 215 221 154 139 137 125 127 129 135 136 140 144 149 147 139 135 131 124 117 104 89 61 49 34 13 20 1 11 360 0 358 357
163 161 170 187 204 166 184 203 206 208 275 261 223 264 185 108 124 172 270 209 269 273 182 171 159 151 136 144 147 142 145 143 140 148 151 148 145 144 139 128 117 100 83 62 38 25 15 4 11 2 358 360 358 358
155 182 182 190 213 199 204 186 191 178 247 232 224 246 118 112 181 192 112 26 77 96 123 162 178 161 156 152 156 158 158 159 155 151 157 159 151 151 147 143 128 105 62 14 15 15 9 7 5 1 357 350 352 356
225 185 199 198 188 223 208 204 201 209 175 245 194 200 121 176 202 92 67 23 54 70 110 170 171 194 184 158 153 162 170 164 166 159 163 158 165 171 165 171 173 147 48 42 17 7 359 354 350 351 349 347 344 348
200 214 203 214 219 198 254 248 211 196 203 221 327 126 163 209 100 75 95 107 78 31 49 84 152 148 127 125 132 142 154 159 164 154 155 147 140 134 147 165 143 134 116 77 39 14 353 344 342 341 341 341 339 338
257 192 194 197 185 225 349 334 229 214 344 113 141 59 40 20 82 350 117 178 110 66 91 93 105 118 122 124 129 132 132 131 128 132 132 126 122 120 117 110 177 182 172 139 79 19 7 351 345 340 338 340 337 335
210 208 151 172 209 221 143 86 360 26 355 49 70 98 92 75 63 69 64 134 124 132 129 113 108 112 113 115 116 123 130 140 149 154 149 140 130 103 95 92 91 84 41 356 349 346 342 348 355 359 355 346 336 340
197 181 186 151 165 86 52 39 67 27 65 96 112 112 94 86 97 93 72 42 152 138 140 138 130 129 125 122 115 104 97 98 98 119 123 130 130 131 123 107 83 35 3 349 338 333 343 353 348 352 344 349 342 356
145 130 106 88 88 93 112 108 113 113 94 69 91 121 122 120 86 99 92 67 64 115 137 139 137 142 140 126 125 120 102 94 92 103 114 119 121 120 113 95 55 1 353 351 351 347 354 356 346 355 359 359 355 359
154 173 151 131 127 152 138 109 95 93 101 105 108 119 116 106 88 66 103 90 108 110 109 110 112 111 115 114 114 114 115 114 106 103 101 109 107 96 81 57 31 34 37 35 26 21 24 25 19 8 4 0 360 359
119 115 117 119 139 168 174 159 122 119 116 118 118 107 91 84 101 139 137 103 99 119 117 118 119 121 119 118 128 132 127 126 126 129 135 140 141 125 93 72 59 58 42 38 24 19 5 2 359 356 355 354 353 353
Wind_Speed_850mb
41 40 38 36 33 30 29 31 30 29 28 29 26 18 21 21 20 20 19 14 13 15 35 26 23 18 16 14 9 6 11 2 5 5 6 11 7 4 6 12 10 17 17 16 22 12 18 7 11 8 22 32 38 44
38 38 37 35 33 31 29 28 28 27 27 28 29 26 20 21 22 23 22 20 25 18 21 29 35 42 41 31 12 10 3 6 3 3 2 9 8 5 5 4 2 8 18 5 10 6 5 3 8 16 14 29 39 46
39 37 35 35 34 32 31 29 29 27 26 28 34 32 26 21 24 30 24 25 15 11 35 20 16 16 15 28 33 13 10 12 10 8 4 5 11 6 5 6 8 12 19 7 10 3 3 4 11 6 21 33 37 42
35 35 35 35 33 33 33 31 29 27 25 26 29 31 29 22 23 30 35 19 17 8 6 6 1 9 14 17 26 37 14 9 3 4 7 7 8 12 7 8 14 14 2 12 18 15 13 2 9 18 30 31 38 42
34 34 33 33 32 32 32 32 29 27 27 24 20 26 24 16 20 35 26 21 19 11 7 22 42 22 31 40 28 33 36 26 6 4 7 7 11 11 13 13 16 22 16 10 12 14 13 18 22 26 27 35 38 46
31 30 29 29 29 29 27 28 29 27 27 24 21 25 21 23 28 32 10 20 27 23 6 7 1 12 12 12 17 30 30 24 12 8 11 12 24 13 7 10 9 6 6 13 8 13 18 22 18 20 31 33 38 43
29 28 28 29 28 26 25 26 27 26 22 19 21 24 21 23 32 25 10 13 11 20 7 9 5 9 10 6 7 22 19 16 15 9 12 13 9 10 7 17 7 7 3 6 10 14 18 18 26 27 27 32 37 41
30 30 29 29 27 26 24 26 25 23 15 17 20 22 20 31 44 32 20 15 12 12 6 5 8 11 16 9 9 16 14 16 14 9 9 15 8 11 9 15 11 2 1 8 9 11 16 19 21 22 27 33 38 41
27 30 29 30 30 27 26 23 21 18 16 16 22 21 15 35 20 24 17 15 15 10 6 8 6 5 9 7 7 15 17 7 14 7 7 7 7 10 12 5 10 9 2 11 15 17 11 16 19 23 29 33 36 41
29 30 30 30 29 26 25 22 21 18 13 19 17 16 10 14 19 27 14 13 12 8 11 7 21 10 5 12 9 3 10 7 6 9 13 7 11 19 1 4 10 5 5 12 17 16 18 18 21 25 27 30 32 37
35 29 29 27 25 24 20 24 24 19 12 26 13 10 14 33 18 10 8 10 11 9 14 15 22 16 8 9 3 4 2 4 5 8 8 7 7 11 8 8 5 2 5 9 10 11 12 16 21 24 26 28 31 35
32 31 30 28 27 24 17 23 21 19 14 16 10 26 27 9 6 7 7 9 11 7 15 11 11 13 5 5 6 6 4 5 7 18 8 6 8 17 16 13 6 3 7 8 8 9 12 16 19 21 22 24 28 32
28 29 30 31 28 23 20 16 20 22 22 16 9 10 10 9 9 9 13 9 8 8 10 14 6 7 7 8 5 4 7 8 6 7 6 5 22 20 17 12 6 4 5 7 9 11 14 16 18 19 19 22 25 29
23 25 25 26 34 30 21 17 22 30 16 10 10 10 9 10 10 10 8 8 9 6 5 4 7 8 8 8 4 7 8 7 7 8 3 14 20 21 18 10 8 9 8 8 10 13 15 17 17 19 20 22 25 30
20 19 20 18 19 23 15 18 25 29 13 6 6 7 12 7 5 9 5 1 2 6 10 3 7 11 6 6 8 8 7 7 8 1 13 25 25 23 17 14 13 11 10 12 13 15 17 18 20 21 23 24 26 30
21 20 20 11 13 15 16 19 53 36 5 6 8 9 9 8 3 8 10 11 11 9 7 7 4 5 8 5 9 10 5 4 4 7 28 28 25 20 20 17 15 13 13 13 14 16 17 19 21 22 24 27 28 30
17 9 9 15 21 17 26 37 26 13 8 6 9 19 19 7 16 10 10 2 8 11 4 5 7 9 6 5 6 4 3 8 14 22 25 24 22 23 22 19 16 14 14 14 14 15 16 17 19 22 26 28 30 31
17 6 11 14 28 27 38 24 10 9 9 14 12 13 14 13 9 3 6 5 10 10 6 6 8 6 4 3 4 7 12 18 19 22 24 23 24 23 20 18 16 14 13 13 13 13 14 16 17 20 22 24 26 33
7 8 11 29 36 19 10 11 5 6 16 10 19 18 11 9 11 9 14 11 11 14 6 7 7 5 5 7 3 12 17 22 24 23 25 25 23 21 19 17 15 13 12 11 10 10 10 14 15 18 20 22 24 29
8 10 20 31 33 7 6 5 12 7 7 7 14 12 13 11 4 11 12 13 10 6 8 7 6 2 10 3 10 7 17 22 27 29 28 25 22 20 17 14 12 11 9 8 9 8 6 8 13 15 19 22 23 28
17 15 18 25 20 10 6 6 8 7 7 9 6 10 9 8 11 11 10 12 8 5 6 9 7 10 4 3 3 13 20 23 23 24 28 27 22 19 15 12 10 7 6 6 5 9 10 10 12 15 17 20 21 23
16 29 25 29 7 6 5 8 5 3 5 7 5 9 9 10 10 9 14 7 7 10 10 7 12 8 3 9 15 19 23 21 23 26 24 25 22 19 15 12 10 9 8 8 7 7 8 10 14 14 17 20 22 23
28 20 10 12 5 9 3 8 7 5 5 4 5 5 5 5 7 10 4 8 10 14 15 12 17 8 14 19 23 24 23 24 27 27 26 21 19 17 15 13 11 9 8 8 7 7 8 13 15 16 18 20 22 23
20 12 6 10 10 6 5 8 7 4 5 3 3 7 3 7 7 4 2 2 6 2 10 22 19 17 18 22 26 24 23 23 24 24 20 22 20 17 14 12 10 8 7 5 5 6 7 10 16 15 18 20 24 25
7 9 8 6 10 10 11 9 8 6 5 8 6 4 4 6 3 4 2 5 8 9 6 15 18 15 15 21 23 23 19 22 24 23 19 18 18 16 13 10 9 6 5 4 5 6 8 10 12 17 18 21 25 26
7 10 11 14 8 8 9 5 10 10 7 5 7 5 4 3 4 5 4 9 12 10 4 12 22 19 16 18 20 20 21 20 20 21 17 17 14 13 13 11 8 3 4 4 3 5 7 11 14 18 19 22 27 27
6 9 10 11 6 5 6 9 6 4 4 5 1 5 3 5 4 5 4 8 12 9 6 8 13 21 23 21 20 21 19 17 20 20 18 15 12 9 6 4 7 7 4 4 4 6 8 12 15 18 20 22 23 25
7 7 7 15 9 10 3 5 4 2 1 3 3 3 3 8 4 2 1 3 13 10 8 15 20 22 23 23 22 24 25 27 30 27 23 19 15 13 14 10 10 19 11 7 6 6 10 13 16 19 20 22 23 24
7 5 7 9 7 9 3 3 5 7 9 4 2 4 6 6 5 7 9 8 18 14 16 21 25 27 29 27 25 21 19 19 20 23 20 17 13 10 10 12 11 6 5 12 15 18 23 21 19 16 18 19 20 22
9 12 3 7 3 1 5 3 3 5 9 11 13 14 14 10 14 21 23 14 18 28 25 22 21 21 23 23 25 26 22 19 19 18 14 14 15 12 9 7 5 4 6 8 11 17 23 21 19 18 18 18 20 23
16 8 6 5 5 4 9 12 14 15 11 16 17 20 17 12 17 17 27 18 14 19 22 25 28 27 23 21 19 18 18 16 20 19 18 16 13 11 8 7 5 4 7 9 10 12 14 13 13 14 16 18 21 23
14 10 11 6 6 13 10 3 6 7 6 9 9 13 13 8 8 6 20 26 15 20 23 23 25 25 22 23 26 28 30 26 23 21 18 15 13 11 9 7 8 9 9 9 10 11 13 13 12 15 16 19 22 24
8 10 13 11 10 11 10 8 5 7 7 7 6 6 7 6 7 7 20 28 18 22 25 25 25 26 27 26 26 24 19 16 13 11 8 6 6 12 11 8 8 9 8 9 11 12 15 17 18 20 22 24 26 28
Wind_Direction_850mb
286 283 284 285 287 288 283 276 277 276 270 267 268 278 271 260 262 265 269 250 232 265 286 297 258 232 254 248 257 52 247 69 149 230 245 258 279 258 252 157 177 197 197 217 232 244 246 93 273 310 352 331 331 324
295 287 282 281 280 281 281 279 277 274 270 266 266 263 266 269 250 249 242 239 243 239 265 289 269 261 255 239 240 240 355 179 153 249 286 298 270 274 270 232 189 233 222 244 219 232 121 267 301 326 311 320 326 322
295 292 285 278 278 278 280 280 280 277 277 276 264 258 263 255 248 255 247 264 263 279 299 263 296 227 217 209 215 230 233 231 232 176 314 279 274 298 262 271 244 245 237 242 294 13 92 228 322 300 323 323 320 321
296 292 291 285 277 275 277 278 274 273 276 280 273 246 254 249 242 246 246 259 234 264 272 311 5 207 208 195 207 222 248 179 180 237 269 245 260 283 278 289 291 296 217 264 270 278 325 56 25 335 323 321 322 325
296 293 290 288 282 275 270 270 268 261 264 274 272 245 248 260 247 246 235 247 238 223 290 295 296 273 241 245 247 221 229 222 209 246 235 259 275 269 269 275 260 274 269 282 300 355 313 318 338 326 327 326 328 328
302 301 299 296 291 281 276 271 266 260 262 273 271 237 238 251 243 202 231 253 238 229 278 294 43 264 202 200 218 211 209 202 207 232 262 258 254 261 281 263 257 272 327 356 315 312 313 301 306 331 324 326 329 326
300 305 304 300 297 291 277 271 263 260 264 267 277 244 231 251 238 186 190 164 143 182 240 273 285 158 168 162 181 156 190 203 199 236 237 243 250 256 271 267 278 317 157 275 313 309 306 337 329 322 326 329 330 330
283 291 297 297 293 289 284 276 261 256 247 273 277 260 246 221 220 207 199 185 166 187 234 272 269 193 186 158 176 184 168 194 212 243 233 250 255 234 253 253 132 180 49 279 297 309 309 315 319 328 333 336 337 337
268 282 287 287 287 284 278 273 249 233 254 282 280 243 248 195 193 216 213 218 202 198 234 212 245 241 182 124 163 184 178 182 205 220 225 225 250 230 256 285 195 138 12 327 320 313 320 332 333 340 342 344 344 340
253 270 280 283 285 278 273 255 240 269 257 269 185 175 198 189 162 143 136 171 205 231 227 254 235 247 274 179 177 219 199 210 211 213 155 216 251 251 196 76 104 101 358 337 334 343 340 337 342 344 349 348 345 343
251 268 277 278 282 273 271 244 241 286 238 188 179 159 151 148 145 151 160 201 182 229 209 232 234 235 239 261 129 211 265 303 236 170 208 208 248 165 170 148 142 52 349 341 338 332 337 340 343 346 349 351 349 351
263 258 272 272 276 266 262 247 240 225 207 196 170 135 142 184 203 181 196 187 219 245 177 213 190 205 223 263 232 198 256 197 254 173 220 212 130 138 152 152 142 13 348 346 357 359 358 354 356 357 358 358 356 358
257 256 265 261 260 263 243 248 228 216 210 167 155 147 173 179 199 211 190 199 188 215 196 170 154 164 193 194 221 244 232 233 221 211 227 68 138 152 148 150 130 41 58 47 26 18 14 9 12 14 13 10 8 9
268 268 267 259 244 246 238 255 235 195 186 193 175 174 227 173 228 213 331 45 61 133 179 165 137 183 177 182 230 238 219 221 221 221 176 129 139 147 147 139 140 104 80 67 57 37 32 27 29 31 30 23 17 13
274 276 269 249 228 220 228 218 219 196 196 202 215 226 212 245 130 117 119 327 225 196 164 199 200 183 171 232 210 241 201 226 220 47 112 122 138 147 135 128 120 110 92 80 60 51 43 42 47 46 36 28 20 14
263 280 252 231 217 208 205 174 181 190 211 220 232 254 222 227 152 216 230 247 212 211 192 210 219 210 200 220 214 208 219 184 74 111 106 132 139 132 130 124 114 102 91 79 64 61 59 53 48 43 34 25 19 15
243 235 254 243 218 206 176 177 179 194 212 221 240 243 260 266 227 219 223 166 237 175 197 203 230 227 175 229 220 188 82 110 134 107 122 132 135 135 133 126 117 106 96 84 73 70 64 55 48 41 32 25 18 16
218 235 241 170 166 173 177 191 181 195 233 228 245 218 218 252 273 223 163 240 198 186 197 231 276 237 214 272 136 131 135 103 111 118 129 133 135 134 133 127 120 109 100 91 83 74 64 53 43 33 25 20 15 12
200 249 179 168 176 157 148 181 199 235 233 241 245 261 262 259 269 252 183 194 238 227 254 252 249 233 161 233 67 118 137 134 130 129 131 135 136 133 130 127 120 111 102 95 89 78 65 55 43 32 22 19 18 10
153 183 170 184 186 159 145 186 184 248 249 246 240 247 235 247 261 202 214 180 200 192 225 218 245 354 157 14 84 172 137 137 140 141 142 143 142 137 135 135 125 121 107 108 81 82 69 52 32 23 16 15 15 11
166 171 152 173 188 216 196 189 209 233 273 266 312 295 268 263 251 212 188 155 181 221 253 238 184 145 78 91 115 126 139 145 151 152 152 149 152 144 139 132 129 118 106 91 71 68 55 39 24 15 14 10 12 3
176 167 166 191 170 216 227 212 245 280 250 268 229 217 238 213 225 207 158 165 220 222 233 247 194 161 132 117 127 137 136 140 138 139 142 146 144 142 138 132 127 109 86 68 61 52 43 20 26 14 5 5 2 355
172 165 151 186 179 196 224 186 216 214 245 257 246 215 231 206 130 163 173 214 228 228 215 221 154 139 137 125 127 129 135 136 140 144 149 147 139 135 131 124 117 104 89 61 49 34 13 20 1 11 360 0 358 357
163 161 170 187 204 166 184 203 206 208 275 261 223 264 185 108 124 172 270 209 269 273 182 171 159 151 136 144 147 142 145 143 140 148 151 148 145 144 139 128 117 100 83 62 38 25 15 4 11 2 358 360 358 358
155 182 182 190 213 199 204 186 191 178 247 232 224 246 118 112 181 192 112 26 77 96 123 162 178 161 156 152 156 158 158 159 155 151 157 159 151 151 147 143 128 105 62 14 15 15 9 7 5 1 357 350 352 356
225 185 199 198 188 223 208 204 201 209 175 245 194 200 121 176 202 92 67 23 54 70 110 170 171 194 184 158 153 162 170 164 166 159 163 158 165 171 165 171 173 147 48 42 17 7 359 354 350 351 349 347 344 348
200 214 203 214 219 198 254 248 211 196 203 221 327 126 163 209 100 75 95 107 78 31 49 84 152 148 127 125 132 142 154 159 164 154 155 147 140 134 147 165 143 134 116 77 39 14 353 344 342 341 341 341 339 338
257 192 194 197 185 225 349 334 229 214 344 113 141 59 40 20 82 350 117 178 110 66 91 93 105 118 122 124 129 132 132 131 128 132 132 126 122 120 117 110 177 182 172 139 79 19 7 351 345 340 338 340 337 335
210 208 151 172 209 221 143 86 360 26 355 49 70 98 92 75 63 69 64 134 124 132 129 113 108 112 113 115 116 123 130 140 149 154 149 140 130 103 95 92 91 84 41 356 349 346 342 348 355 359 355 346 336 340
197 181 186 151 165 86 52 39 67 27 65 96 112 112 94 86 97 93 72 42 152 138 140 138 130 129 125 122 115 104 97 98 98 119 123 130 130 131 123 107 83 35 3 349 338 333 343 353 348 352 344 349 342 356
145 130 106 88 88 93 112 108 113 113 94 69 91 121 122 120 86 99 92 67 64 115 137 139 137 142 140 126 125 120 102 94 92 103 114 119 121 120 113 95 55 1 353 351 351 347 354 356 346 355 359 359 355 359
154 173 151 131 127 152 138 109 95 93 101 105 108 119 116 106 88 66 103 90 108 110 109 110 112 111 115 114 114 114 115 114 106 103 101 109 107 96 81 57 31 34 37 35 26 21 24 25 19 8 4 0 360 359
119 115 117 119 139 168 174 159 122 119 116 118 118 107 91 84 101 139 137 103 99 119 117 118 119 121 119 118 128 132 127 126 126 129 135 140 141 125 93 72 59 58 42 38 24 19 5 2 359 356 355 354 353 353